HAZ2812 ZBAD-ZSHC

Flight info

Callsign HAZ2812
Flight time 1h 24m
Altitude 34100
Route ELKUR4K ELKUR W40 DOXAB/K0872S1070 W40 YQG/K0885S1100 W142 DALIM/K0880S1070 A593 DPX A470 IGRAT IGRAT91
Aircraft B77W/H-SDE1E2E3FGHIJ2J3J4J5M1RWXY/LB1D1

Departure

Time 2026-04-30 06:25
Airport Beijing Daxing International Airport (ZBAD)

Arrival

Time 2026-04-30 07:49
Airport Hangzhou Xiaoshan International Airport (ZSHC)
Time Latitude Longitude Altitude Speed Heading
2026-04-30 06:05 39.50383 116.40416 97 ft 0 kts 233°
2026-04-30 06:13 39.50389 116.40426 96 ft 2 kts 233°
2026-04-30 06:14 39.50398 116.40442 96 ft 1 kts 233°
2026-04-30 06:14 39.50404 116.40452 97 ft 2 kts 230°
2026-04-30 06:14 39.50415 116.40465 96 ft 2 kts 210°
2026-04-30 06:14 39.50429 116.40472 96 ft 2 kts 193°
2026-04-30 06:15 39.50443 116.40475 97 ft 2 kts 178°
2026-04-30 06:15 39.50454 116.40474 96 ft 2 kts 168°
2026-04-30 06:15 39.50468 116.40468 97 ft 2 kts 152°
2026-04-30 06:15 39.50479 116.40459 97 ft 1 kts 139°
2026-04-30 06:16 39.50479 116.40458 97 ft 0 kts 139°
2026-04-30 06:18 39.50479 116.40459 96 ft 0 kts 139°
2026-04-30 06:18 39.50467 116.40472 96 ft 8 kts 140°
2026-04-30 06:18 39.50380 116.40556 96 ft 17 kts 149°
2026-04-30 06:18 39.50229 116.40595 96 ft 15 kts 177°
2026-04-30 06:19 39.50143 116.40553 96 ft 13 kts 250°
2026-04-30 06:19 39.50130 116.40424 96 ft 16 kts 263°
2026-04-30 06:19 39.50114 116.40264 96 ft 17 kts 262°
2026-04-30 06:19 39.50104 116.40163 96 ft 16 kts 272°
2026-04-30 06:20 39.50180 116.40086 96 ft 14 kts 351°
2026-04-30 06:20 39.50280 116.40070 96 ft 14 kts 353°
2026-04-30 06:20 39.50383 116.40056 96 ft 17 kts 354°
2026-04-30 06:20 39.50562 116.40028 96 ft 18 kts 353°
2026-04-30 06:21 39.50690 116.40009 96 ft 18 kts 351°
2026-04-30 06:21 39.50775 116.39994 96 ft 18 kts 353°
2026-04-30 06:21 39.50906 116.39973 96 ft 19 kts 353°
2026-04-30 06:21 39.51071 116.39951 96 ft 27 kts 352°
2026-04-30 06:22 39.51252 116.39920 97 ft 23 kts 353°
2026-04-30 06:22 39.51412 116.39894 96 ft 22 kts 352°
2026-04-30 06:22 39.51597 116.39864 96 ft 16 kts 353°
2026-04-30 06:22 39.51705 116.39847 97 ft 14 kts 353°
2026-04-30 06:23 39.51769 116.39826 97 ft 8 kts 325°
2026-04-30 06:23 39.51789 116.39786 97 ft 8 kts 287°
2026-04-30 06:23 39.51786 116.39713 97 ft 8 kts 247°
2026-04-30 06:23 39.51740 116.39641 97 ft 10 kts 214°
2026-04-30 06:24 39.51602 116.39642 97 ft 39 kts 172°
2026-04-30 06:24 39.51067 116.39726 97 ft 111 kts 173°
2026-04-30 06:24 39.50097 116.39881 108 ft 166 kts 172°
2026-04-30 06:24 39.49298 116.40026 359 ft 179 kts 176°
2026-04-30 06:25 39.48060 116.40178 1058 ft 185 kts 176°
2026-04-30 06:25 39.46769 116.40361 1688 ft 195 kts 175°
2026-04-30 06:25 39.44862 116.40651 2412 ft 218 kts 174°
2026-04-30 06:25 39.43307 116.40887 2991 ft 235 kts 174°
2026-04-30 06:26 39.41592 116.41148 3606 ft 252 kts 174°
2026-04-30 06:26 39.40398 116.41336 4008 ft 263 kts 174°
2026-04-30 06:26 39.38560 116.41630 4753 ft 272 kts 173°
2026-04-30 06:26 39.36733 116.42372 5492 ft 281 kts 149°
2026-04-30 06:27 39.35316 116.44102 6310 ft 284 kts 121°
2026-04-30 06:27 39.34605 116.47339 7380 ft 284 kts 85°
2026-04-30 06:27 39.34804 116.49839 8319 ft 282 kts 78°
2026-04-30 06:27 39.35073 116.52316 9260 ft 281 kts 78°
2026-04-30 06:28 39.35243 116.53974 9824 ft 282 kts 78°
2026-04-30 06:28 39.35460 116.56544 10469 ft 294 kts 84°
2026-04-30 06:28 39.35376 116.59262 10993 ft 312 kts 90°
2026-04-30 06:28 39.35202 116.62120 11527 ft 327 kts 90°
2026-04-30 06:29 39.34958 116.66160 12244 ft 347 kts 91°
2026-04-30 06:29 39.34833 116.68262 12617 ft 357 kts 91°
2026-04-30 06:29 39.34643 116.71486 13220 ft 370 kts 91°
2026-04-30 06:29 39.34255 116.74837 14073 ft 380 kts 100°
2026-04-30 06:30 39.33378 116.78135 14997 ft 391 kts 110°
2026-04-30 06:30 39.32017 116.81232 15886 ft 402 kts 121°
2026-04-30 06:30 39.30174 116.84019 16781 ft 413 kts 132°
2026-04-30 06:30 39.26997 116.87048 17883 ft 430 kts 148°
2026-04-30 06:31 39.25172 116.88158 18434 ft 436 kts 154°
2026-04-30 06:31 39.22327 116.89613 19256 ft 442 kts 156°
2026-04-30 06:31 39.19434 116.91054 20023 ft 449 kts 156°
2026-04-30 06:31 39.16478 116.92531 20793 ft 455 kts 156°
2026-04-30 06:32 39.13526 116.94006 21472 ft 462 kts 155°
2026-04-30 06:32 39.10465 116.95540 22217 ft 467 kts 155°
2026-04-30 06:32 39.07449 116.97052 23028 ft 470 kts 155°
2026-04-30 06:32 39.04378 116.98592 23681 ft 476 kts 155°
2026-04-30 06:33 39.01291 117.00140 24260 ft 483 kts 155°
2026-04-30 06:33 38.98082 117.01666 24977 ft 488 kts 160°
2026-04-30 06:33 38.94792 117.02623 25667 ft 495 kts 169°
2026-04-30 06:33 38.91285 117.02927 26314 ft 502 kts 179°
2026-04-30 06:34 38.87740 117.02530 26875 ft 509 kts 189°
2026-04-30 06:34 38.84234 117.01440 27317 ft 518 kts 199°
2026-04-30 06:34 38.80883 116.99699 27563 ft 528 kts 208°
2026-04-30 06:34 38.77613 116.97218 27691 ft 540 kts 218°
2026-04-30 06:35 38.74714 116.94138 27904 ft 548 kts 228°
2026-04-30 06:35 38.72203 116.90471 28239 ft 551 kts 237°
2026-04-30 06:35 38.70150 116.86289 28633 ft 549 kts 247°
2026-04-30 06:35 38.68325 116.82075 29225 ft 550 kts 242°
2026-04-30 06:36 38.66047 116.78106 29949 ft 552 kts 234°
2026-04-30 06:36 38.63384 116.74563 30494 ft 556 kts 225°
2026-04-30 06:36 38.60319 116.71435 30876 ft 561 kts 217°
2026-04-30 06:36 38.55781 116.68137 31436 ft 563 kts 206°
2026-04-30 06:37 38.53359 116.66885 31704 ft 564 kts 201°
2026-04-30 06:37 38.49540 116.65522 32096 ft 564 kts 192°
2026-04-30 06:37 38.45648 116.64762 32507 ft 563 kts 187°
2026-04-30 06:37 38.41792 116.64211 32955 ft 560 kts 186°
2026-04-30 06:38 38.37876 116.63689 33368 ft 559 kts 186°
2026-04-30 06:38 38.34029 116.63206 33746 ft 559 kts 184°
2026-04-30 06:38 38.30158 116.63132 34062 ft 558 kts 176°
2026-04-30 06:38 38.26310 116.63702 34326 ft 556 kts 168°
2026-04-30 06:39 38.22528 116.64877 34567 ft 554 kts 162°
2026-04-30 06:39 38.18821 116.66251 34853 ft 551 kts 162°
2026-04-30 06:39 38.15131 116.67632 35091 ft 549 kts 162°
2026-04-30 06:39 38.11481 116.68997 35319 ft 549 kts 162°
2026-04-30 06:40 38.07776 116.70398 35543 ft 549 kts 162°
2026-04-30 06:40 38.04158 116.71786 35780 ft 548 kts 162°
2026-04-30 06:40 38.00464 116.73202 36072 ft 547 kts 163°
2026-04-30 06:40 37.96791 116.74606 36368 ft 547 kts 163°
2026-04-30 06:41 37.93134 116.76001 36648 ft 547 kts 163°
2026-04-30 06:41 37.89490 116.77389 36875 ft 548 kts 163°
2026-04-30 06:41 37.85798 116.78793 37083 ft 547 kts 163°
2026-04-30 06:41 37.82151 116.80177 37286 ft 547 kts 163°
2026-04-30 06:42 37.78502 116.81561 37459 ft 548 kts 163°
2026-04-30 06:42 37.74842 116.82946 37611 ft 548 kts 164°
2026-04-30 06:42 37.71202 116.84322 37762 ft 548 kts 164°
2026-04-30 06:42 37.67524 116.85711 37890 ft 547 kts 164°
2026-04-30 06:43 37.63873 116.87088 38006 ft 547 kts 164°
2026-04-30 06:43 37.56549 116.89847 38011 ft 547 kts 164°
2026-04-30 06:44 37.49200 116.92608 38006 ft 546 kts 164°
2026-04-30 06:44 37.41916 116.95339 38022 ft 546 kts 164°
2026-04-30 06:45 37.34558 116.98093 38000 ft 546 kts 165°
2026-04-30 06:45 37.27228 117.00891 37994 ft 546 kts 161°
2026-04-30 06:46 37.20140 117.04253 38032 ft 546 kts 160°
2026-04-30 06:46 37.11800 117.08215 38011 ft 546 kts 160°
2026-04-30 06:47 37.04656 117.11576 38032 ft 545 kts 160°
2026-04-30 06:47 36.98755 117.14338 38041 ft 546 kts 160°
2026-04-30 06:48 36.91554 117.17696 38054 ft 547 kts 160°
2026-04-30 06:48 36.84317 117.20686 38054 ft 545 kts 169°
2026-04-30 06:49 36.76804 117.21490 38058 ft 542 kts 182°
2026-04-30 06:49 36.69140 117.21464 38052 ft 539 kts 182°
2026-04-30 06:50 36.61667 117.21418 38068 ft 539 kts 182°
2026-04-30 06:50 36.54044 117.21368 38071 ft 540 kts 182°
2026-04-30 06:51 36.46487 117.21316 38074 ft 540 kts 182°
2026-04-30 06:51 36.38962 117.22373 38055 ft 544 kts 167°
2026-04-30 06:52 36.31657 117.25024 38066 ft 546 kts 165°
2026-04-30 06:52 36.24321 117.27762 38061 ft 546 kts 165°
2026-04-30 06:53 36.17049 117.30466 38057 ft 544 kts 165°
2026-04-30 06:53 36.09788 117.33157 38072 ft 544 kts 165°
2026-04-30 06:54 36.02480 117.35859 38073 ft 545 kts 165°
2026-04-30 06:54 35.95174 117.38577 38080 ft 544 kts 165°
2026-04-30 06:55 35.87906 117.41302 38068 ft 545 kts 165°
2026-04-30 06:55 35.80652 117.44015 38079 ft 544 kts 165°
2026-04-30 06:56 35.73365 117.46734 38077 ft 544 kts 165°
2026-04-30 06:56 35.66120 117.49432 38075 ft 545 kts 165°
2026-04-30 06:57 35.58848 117.52134 38085 ft 543 kts 165°
2026-04-30 06:57 35.51533 117.54846 38081 ft 545 kts 165°
2026-04-30 06:58 35.44257 117.57539 38091 ft 544 kts 165°
2026-04-30 06:58 35.36997 117.60222 38098 ft 543 kts 165°
2026-04-30 06:59 35.29729 117.62902 38106 ft 543 kts 165°
2026-04-30 06:59 35.21248 117.66022 38090 ft 543 kts 166°
2026-04-30 07:00 35.15178 117.68252 38091 ft 542 kts 166°
2026-04-30 07:00 35.06764 117.71336 38097 ft 541 kts 166°
2026-04-30 07:01 35.00705 117.73556 38094 ft 543 kts 166°
2026-04-30 07:01 34.93466 117.76206 38087 ft 543 kts 166°
2026-04-30 07:02 34.86166 117.78874 38089 ft 542 kts 166°
2026-04-30 07:02 34.78936 117.81515 38092 ft 542 kts 167°
2026-04-30 07:03 34.71711 117.84116 38094 ft 541 kts 167°
2026-04-30 07:03 34.64393 117.86744 38103 ft 541 kts 167°
2026-04-30 07:04 34.57171 117.89335 38103 ft 541 kts 167°
2026-04-30 07:04 34.48652 117.92384 38097 ft 541 kts 167°
2026-04-30 07:05 34.38988 117.95838 38106 ft 541 kts 167°
2026-04-30 07:05 34.31694 117.98438 38110 ft 541 kts 168°
2026-04-30 07:06 34.24450 118.01034 38119 ft 541 kts 167°
2026-04-30 07:06 34.17205 118.03678 38116 ft 540 kts 167°
2026-04-30 07:07 34.09959 118.06317 38114 ft 541 kts 168°
2026-04-30 07:07 34.02726 118.08945 38116 ft 541 kts 167°
2026-04-30 07:08 33.95447 118.11592 38111 ft 541 kts 168°
2026-04-30 07:08 33.88195 118.14233 38113 ft 541 kts 168°
2026-04-30 07:09 33.80963 118.16860 38122 ft 542 kts 168°
2026-04-30 07:09 33.73729 118.19496 38125 ft 542 kts 168°
2026-04-30 07:10 33.66519 118.22121 38117 ft 539 kts 168°
2026-04-30 07:10 33.59255 118.24760 38122 ft 542 kts 168°
2026-04-30 07:11 33.52018 118.27385 38123 ft 540 kts 168°
2026-04-30 07:11 33.44731 118.30022 38129 ft 542 kts 168°
2026-04-30 07:12 33.37515 118.32629 38125 ft 541 kts 168°
2026-04-30 07:12 33.30258 118.35248 38128 ft 540 kts 169°
2026-04-30 07:13 33.22988 118.37865 38127 ft 540 kts 169°
2026-04-30 07:13 33.15810 118.40449 38138 ft 541 kts 169°
2026-04-30 07:14 33.08531 118.43070 38144 ft 542 kts 169°
2026-04-30 07:14 33.01300 118.45669 38141 ft 539 kts 169°
2026-04-30 07:15 32.94024 118.48279 38155 ft 541 kts 169°
2026-04-30 07:15 32.86826 118.50855 38161 ft 541 kts 169°
2026-04-30 07:16 32.79585 118.53445 38165 ft 539 kts 169°
2026-04-30 07:16 32.72339 118.56029 38167 ft 541 kts 169°
2026-04-30 07:17 32.63934 118.59174 38169 ft 543 kts 165°
2026-04-30 07:18 32.54539 118.63542 38165 ft 544 kts 165°
2026-04-30 07:18 32.47465 118.66807 38150 ft 542 kts 166°
2026-04-30 07:19 32.40389 118.70046 38144 ft 544 kts 166°
2026-04-30 07:19 32.33313 118.73269 38142 ft 543 kts 166°
2026-04-30 07:20 32.26249 118.76475 38149 ft 542 kts 166°
2026-04-30 07:20 32.19178 118.79675 38153 ft 543 kts 166°
2026-04-30 07:21 32.12091 118.82875 38151 ft 541 kts 166°
2026-04-30 07:21 32.04989 118.86075 38160 ft 540 kts 167°
2026-04-30 07:22 31.94423 118.90825 38171 ft 541 kts 167°
2026-04-30 07:22 31.86213 118.94506 38178 ft 541 kts 167°
2026-04-30 07:23 31.80302 118.97154 38171 ft 540 kts 167°
2026-04-30 07:23 31.73250 119.00321 38178 ft 535 kts 167°
2026-04-30 07:24 31.69824 119.01865 37807 ft 526 kts 168°
2026-04-30 07:24 31.66385 119.03405 36927 ft 528 kts 168°
2026-04-30 07:24 31.62873 119.04700 35656 ft 529 kts 174°
2026-04-30 07:24 31.59275 119.05977 34351 ft 542 kts 169°
2026-04-30 07:25 31.55825 119.07806 33274 ft 554 kts 160°
2026-04-30 07:25 31.51508 119.11116 32455 ft 554 kts 152°
2026-04-30 07:25 31.49428 119.12917 32137 ft 549 kts 152°
2026-04-30 07:25 31.46354 119.15600 31601 ft 542 kts 152°
2026-04-30 07:26 31.43349 119.18220 30968 ft 539 kts 152°
2026-04-30 07:26 31.40328 119.20851 30276 ft 536 kts 152°
2026-04-30 07:26 31.37334 119.23457 29684 ft 531 kts 151°
2026-04-30 07:26 31.34383 119.26028 29157 ft 525 kts 152°
2026-04-30 07:27 31.31453 119.28579 28585 ft 519 kts 152°
2026-04-30 07:27 31.28540 119.31113 28003 ft 515 kts 152°
2026-04-30 07:27 31.25685 119.33593 27314 ft 513 kts 152°
2026-04-30 07:27 31.21855 119.36919 26448 ft 507 kts 152°
2026-04-30 07:28 31.19928 119.38592 26025 ft 504 kts 152°
2026-04-30 07:28 31.17108 119.41049 25433 ft 500 kts 152°
2026-04-30 07:28 31.14352 119.43461 24839 ft 495 kts 152°
2026-04-30 07:28 31.11631 119.45841 24271 ft 489 kts 152°
2026-04-30 07:29 31.08888 119.48237 23605 ft 486 kts 152°
2026-04-30 07:29 31.06162 119.50614 22895 ft 485 kts 151°
2026-04-30 07:29 31.03466 119.52966 22345 ft 479 kts 151°
2026-04-30 07:29 31.00823 119.55270 21809 ft 474 kts 150°
2026-04-30 07:30 30.95546 119.59863 20646 ft 466 kts 150°
2026-04-30 07:30 30.92956 119.62114 20025 ft 463 kts 150°
2026-04-30 07:30 30.90367 119.64364 19484 ft 457 kts 149°
2026-04-30 07:31 30.87830 119.66567 18910 ft 452 kts 150°
2026-04-30 07:31 30.85296 119.68765 18279 ft 448 kts 149°
2026-04-30 07:31 30.82805 119.70924 17665 ft 444 kts 149°
2026-04-30 07:31 30.80329 119.73070 17073 ft 439 kts 148°
2026-04-30 07:32 30.77866 119.75203 16520 ft 434 kts 148°
2026-04-30 07:32 30.75456 119.77290 16030 ft 427 kts 148°
2026-04-30 07:32 30.73081 119.79343 15434 ft 423 kts 148°
2026-04-30 07:32 30.70847 119.81280 14800 ft 421 kts 147°
2026-04-30 07:33 30.68543 119.83372 14199 ft 418 kts 146°
2026-04-30 07:33 30.66248 119.85475 13646 ft 413 kts 146°
2026-04-30 07:33 30.63953 119.87457 13048 ft 407 kts 152°
2026-04-30 07:33 30.61526 119.89080 12446 ft 402 kts 155°
2026-04-30 07:34 30.59064 119.90649 11886 ft 397 kts 155°
2026-04-30 07:34 30.55849 119.92690 11157 ft 391 kts 155°
2026-04-30 07:34 30.54271 119.93691 10723 ft 391 kts 154°
2026-04-30 07:34 30.51893 119.95198 10126 ft 387 kts 154°
2026-04-30 07:35 30.49531 119.96696 9557 ft 384 kts 154°
2026-04-30 07:35 30.47184 119.98181 9040 ft 379 kts 153°
2026-04-30 07:35 30.44881 119.99640 8572 ft 373 kts 153°
2026-04-30 07:35 30.42597 120.01086 8017 ft 370 kts 153°
2026-04-30 07:36 30.40350 120.02509 7493 ft 366 kts 153°
2026-04-30 07:36 30.38127 120.03917 7078 ft 359 kts 152°
2026-04-30 07:36 30.35199 120.05770 6986 ft 359 kts 152°
2026-04-30 07:36 30.33745 120.06690 6980 ft 361 kts 152°
2026-04-30 07:37 30.31520 120.08096 6990 ft 359 kts 152°
2026-04-30 07:37 30.29319 120.09486 6993 ft 359 kts 152°
2026-04-30 07:37 30.27037 120.10677 6997 ft 359 kts 165°
2026-04-30 07:37 30.24620 120.11121 6982 ft 341 kts 182°
2026-04-30 07:38 30.22336 120.10730 6993 ft 317 kts 199°
2026-04-30 07:38 30.20318 120.09908 6925 ft 298 kts 212°
2026-04-30 07:38 30.18758 120.08376 6546 ft 288 kts 237°
2026-04-30 07:38 30.17696 120.06438 6232 ft 281 kts 243°
2026-04-30 07:39 30.16723 120.04499 6187 ft 266 kts 243°
2026-04-30 07:39 30.15813 120.02692 6184 ft 251 kts 244°
2026-04-30 07:39 30.14896 120.01015 6173 ft 240 kts 232°
2026-04-30 07:39 30.13547 119.99972 6155 ft 235 kts 200°
2026-04-30 07:40 30.11887 119.99894 6148 ft 243 kts 168°
2026-04-30 07:40 30.10395 120.00811 6152 ft 246 kts 136°
2026-04-30 07:40 30.09468 120.02467 5991 ft 245 kts 107°
2026-04-30 07:40 30.09204 120.04436 5631 ft 251 kts 84°
2026-04-30 07:41 30.09393 120.06401 5378 ft 242 kts 80°
2026-04-30 07:41 30.09621 120.08270 5244 ft 230 kts 79°
2026-04-30 07:41 30.10070 120.10038 5147 ft 224 kts 65°
2026-04-30 07:41 30.10709 120.11610 5068 ft 205 kts 60°
2026-04-30 07:42 30.11345 120.13044 4999 ft 197 kts 59°
2026-04-30 07:42 30.11982 120.14444 4930 ft 193 kts 59°
2026-04-30 07:42 30.12609 120.15811 4703 ft 189 kts 59°
2026-04-30 07:42 30.13204 120.17115 4485 ft 172 kts 59°
2026-04-30 07:43 30.13739 120.18287 4282 ft 160 kts 59°
2026-04-30 07:43 30.14253 120.19419 4084 ft 156 kts 59°
2026-04-30 07:43 30.14751 120.20531 3885 ft 154 kts 60°
2026-04-30 07:43 30.15243 120.21633 3687 ft 153 kts 60°
2026-04-30 07:44 30.15734 120.22736 3491 ft 152 kts 60°
2026-04-30 07:44 30.16217 120.23813 3291 ft 150 kts 60°
2026-04-30 07:44 30.16693 120.24881 3095 ft 149 kts 59°
2026-04-30 07:44 30.17173 120.25951 2896 ft 149 kts 60°
2026-04-30 07:45 30.17650 120.27020 2693 ft 148 kts 60°
2026-04-30 07:45 30.18117 120.28067 2495 ft 147 kts 59°
2026-04-30 07:45 30.18595 120.29135 2296 ft 146 kts 60°
2026-04-30 07:45 30.19060 120.30173 2098 ft 146 kts 60°
2026-04-30 07:46 30.19519 120.31206 1899 ft 145 kts 60°
2026-04-30 07:46 30.19982 120.32241 1702 ft 144 kts 60°
2026-04-30 07:46 30.20444 120.33277 1502 ft 145 kts 60°
2026-04-30 07:46 30.20910 120.34320 1306 ft 144 kts 61°
2026-04-30 07:47 30.21372 120.35358 1110 ft 143 kts 60°
2026-04-30 07:47 30.21829 120.36381 906 ft 143 kts 61°
2026-04-30 07:47 30.22282 120.37396 716 ft 142 kts 60°
2026-04-30 07:47 30.22738 120.38422 523 ft 142 kts 61°
2026-04-30 07:48 30.23187 120.39433 334 ft 142 kts 61°
2026-04-30 07:48 30.23653 120.40446 138 ft 141 kts 62°
2026-04-30 07:48 30.24091 120.41441 39 ft 131 kts 61°
2026-04-30 07:48 30.24444 120.42241 35 ft 90 kts 63°
2026-04-30 07:49 30.24660 120.42721 35 ft 38 kts 62°
2026-04-30 07:49 30.24711 120.42929 35 ft 25 kts 82°
2026-04-30 07:49 30.24725 120.43103 35 ft 17 kts 89°
2026-04-30 07:49 30.24703 120.43233 35 ft 15 kts 131°
2026-04-30 07:50 30.24611 120.43259 35 ft 14 kts 222°
2026-04-30 07:50 30.24559 120.43159 35 ft 14 kts 243°
2026-04-30 07:50 30.24514 120.43057 35 ft 14 kts 243°
2026-04-30 07:50 30.24458 120.42928 35 ft 18 kts 243°
2026-04-30 07:51 30.24389 120.42809 35 ft 17 kts 204°
2026-04-30 07:51 30.24274 120.42784 35 ft 16 kts 192°
2026-04-30 07:51 30.24193 120.42765 35 ft 4 kts 192°
2026-04-30 07:51 30.24189 120.42763 35 ft 0 kts 192°